Location: Cran-Gévrier
(45.9039°N, 6.1012°E)
Time: 10:09:16
(UTC+00:00)

Cosmos 2278 Rocket - Pass Details

Date: 09 February 2023
Orbit: 841 x 845 km, 71.0° (Epoch: 31 March)

Event Time Altitude Azimuth Distance (km) Brightness Sun altitude
Rises 20:12:45 0° 321° (NW) 3,412 6.1 -35.0°
Reaches altitude 10° 20:15:46 10° 306° (NW) 2,472 5.3 -35.5°
Maximum altitude 20:19:51 21° 260° (W) 1,823 4.4 -36.2°
Enters shadow 20:22:25 15° 226° (SW) 2,100 4.5 -36.6°
